Weather History for Savannah, GA

Change the Weather History Date:

Friday, July 12, 2013

  Actual Average Record
Temperature  
Mean Temperature 78 °F 83 °F  
Max Temperature 84 °F 93 °F 105 °F (1879)
Min Temperature 72 °F 73 °F 63 °F (1963)
Degree Days  
Heating Degree Days 0 0  
Month to date heating degree days 0 0  
Since 1 June heating degree days 0 0  
Since 1 July heating degree days 0 0  
Cooling Degree Days 13 18  
Month to date cooling degree days 195 208  
Year to date cooling degree days 1021 1057  
Since 1 June cooling degree days 663 654  
Growing Degree Days 28 (Base 50)    
Moisture  
Dew Point 72 °F    
Average Humidity 82    
Maximum Humidity 94    
Minimum Humidity 69    
Precipitation  
Precipitation 0.02 in 0.17 in 2.72 in (1902)
Month to date precipitation 3.13 2.04  
Year to date precipitation 30.95 24.25  
Sea Level Pressure  
Sea Level Pressure 29.92 in    
Wind  
Wind Speed 4 mph (South)    
Max Wind Speed 21 mph    
Max Gust Speed 24 mph    
Visibility 10 miles    
Events Rain , Thunderstorm    
T = Trace of Precipitation, MM = Missing Value Source: NWS Daily Summary

Daily Weather History Graph

Daily Weather History Graph

Search for Another Location

Airport:

Trip Planner

Search our weather history database for the weather conditions in past years. The results will help you decide how hot, cold, wet, or windy it might be!

Date:

Astronomy

Jul. 12, 2013 Rise Set
Actual Time 6:27 AM EDT 8:33 PM EDT
Civil Twilight 5:59 AM EDT 9:00 PM EDT
Nautical Twilight 5:25 AM EDT 9:34 PM EDT
Astronomical Twilight 4:49 AM EDT 10:11 PM EDT
Moon 10:25 AM EDT (7/12) 11:02 PM EDT (7/12)
Length of Visible Light 15h 01m
Length of Day
14h 05m
Waxing Crescent, 17% of the Moon is Illuminated
Jul 12
Waxing Crescent
Jul 15
First Quarter
Jul 22
Full
Jul 29
Last Quarter
Aug 6
New

Hourly Weather History & Observations

Time (EDT) Temp. Heat Index Dew Point Humidity Pressure Visibility Wind Dir Wind Speed Gust Speed Precip Events Conditions
12:53 AM 75.0 °F - 73.0 °F 94% 29.93 in 10.0 mi WSW 4.6 mph - 0.02 in   Clear
1:53 AM 75.0 °F - 73.0 °F 94% 29.93 in 10.0 mi Calm Calm - N/A   Overcast
2:24 AM 75.2 °F - 71.6 °F 89% 29.92 in 10.0 mi SW 3.5 mph - N/A   Overcast
2:45 AM 75.2 °F - 71.6 °F 89% 29.91 in 10.0 mi WSW 3.5 mph - N/A   Scattered Clouds
2:53 AM 75.0 °F - 72.0 °F 90% 29.91 in 10.0 mi Calm Calm - N/A   Partly Cloudy
3:53 AM 75.0 °F - 72.0 °F 90% 29.90 in 10.0 mi SSW 3.5 mph - N/A   Scattered Clouds
4:53 AM 73.9 °F - 72.0 °F 93% 29.89 in 10.0 mi SW 3.5 mph - N/A   Clear
5:53 AM 73.9 °F - 72.0 °F 93% 29.89 in 10.0 mi Calm Calm - N/A   Overcast
6:46 AM 75.2 °F - 71.6 °F 89% 29.91 in 10.0 mi Calm Calm - N/A   Overcast
6:53 AM 75.0 °F - 72.0 °F 90% 29.91 in 10.0 mi Calm Calm - N/A   Overcast
7:53 AM 75.0 °F - 72.0 °F 90% 29.92 in 9.0 mi West 3.5 mph - N/A   Overcast
8:25 AM 75.2 °F - 71.6 °F 89% 29.93 in 9.0 mi WSW 3.5 mph - N/A   Overcast
8:53 AM 75.9 °F - 73.0 °F 91% 29.93 in 10.0 mi WSW 3.5 mph - N/A   Overcast
9:53 AM 77.0 °F - 73.0 °F 88% 29.94 in 10.0 mi Calm Calm - N/A   Overcast
10:53 AM 79.0 °F - 73.9 °F 84% 29.94 in 9.0 mi SSW 4.6 mph - 0.00 in Rain Light Rain
11:53 AM 78.1 °F - 73.9 °F 87% 29.93 in 6.0 mi South 4.6 mph - 0.00 in Rain Light Rain
12:21 PM 78.8 °F - 75.2 °F 89% 29.94 in 7.0 mi SSW 4.6 mph - 0.01 in Rain Light Rain
12:53 PM 79.0 °F - 73.9 °F 84% 29.93 in 9.0 mi SSW 4.6 mph - 0.01 in   Overcast
12:56 PM 78.8 °F - 73.4 °F 83% 29.93 in 10.0 mi SSW 3.5 mph - N/A   Overcast
1:19 PM 80.6 °F 85.4 °F 73.4 °F 79% 29.93 in 10.0 mi SSE 4.6 mph - N/A   Overcast
1:33 PM 82.4 °F 88.2 °F 73.4 °F 74% 29.92 in 10.0 mi South 3.5 mph - N/A   Mostly Cloudy
1:53 PM 82.0 °F 87.9 °F 73.9 °F 76% 29.91 in 10.0 mi SW 3.5 mph - N/A   Overcast
2:53 PM 84.0 °F 91.2 °F 73.9 °F 72% 29.91 in 10.0 mi SSW 5.8 mph - N/A   Overcast
3:53 PM 82.0 °F 86.3 °F 71.1 °F 69% 29.91 in 10.0 mi Variable 3.5 mph - N/A   Overcast
4:49 PM 82.4 °F 87.2 °F 71.6 °F 70% 29.90 in 10.0 mi Calm Calm - N/A Thunderstorm Thunderstorm
4:53 PM 82.0 °F 86.7 °F 72.0 °F 71% 29.90 in 10.0 mi SSE 3.5 mph - N/A Thunderstorm Thunderstorm
5:21 PM 78.8 °F - 69.8 °F 74% 29.91 in 10.0 mi ESE 12.7 mph 24.2 mph N/A Thunderstorm Thunderstorm
5:53 PM 75.9 °F - 69.1 °F 79% 29.90 in 10.0 mi East 8.1 mph - N/A Thunderstorm Thunderstorm
6:00 PM 75.2 °F - 71.6 °F 89% 29.90 in 6.0 mi East 5.8 mph - 0.00 in Rain , Thunderstorm Light Thunderstorms and Rain
6:35 PM 75.2 °F - 71.6 °F 89% 29.90 in 10.0 mi SW 4.6 mph - 0.01 in   Overcast
6:53 PM 75.9 °F - 71.1 °F 85% 29.91 in 10.0 mi SW 4.6 mph - 0.01 in   Overcast
7:53 PM 77.0 °F - 72.0 °F 84% 29.91 in 10.0 mi ENE 5.8 mph - N/A   Overcast
8:53 PM 75.9 °F - 72.0 °F 87% 29.93 in 10.0 mi East 11.5 mph - N/A   Overcast
9:47 PM 75.2 °F - 71.6 °F 89% 29.96 in 10.0 mi SE 12.7 mph - N/A Thunderstorm Thunderstorm
9:53 PM 73.9 °F - 72.0 °F 93% 29.95 in 10.0 mi SE 13.8 mph - N/A Thunderstorm Thunderstorm
10:00 PM 73.4 °F - 71.6 °F 94% 29.95 in 10.0 mi ESE 10.4 mph - N/A Thunderstorm Thunderstorm
10:53 PM 73.0 °F - 69.1 °F 87% 29.95 in 10.0 mi SE 10.4 mph - N/A   Mostly Cloudy
11:53 PM 72.0 °F - 66.9 °F 84% 29.94 in 10.0 mi ESE 3.5 mph - N/A   Overcast